| time (UTC) | temp C | wind direction | speed KPH | gust KPH | rain 1hr cm | rain 24hr cm | rain mn cm | humidity % | barometer mb |
| 20260505041607 | 10 | 358 | 1.6 | 8.0 | 0.00 | 0.00 | 0.00 | 80 | 1013.4 |
| 20260505041107 | 10 | 21 | 3.2 | 4.8 | 0.00 | 0.00 | 0.00 | 81 | 1013.7 |
| 20260505040606 | 10 | 24 | 4.8 | 9.7 | 0.00 | 0.00 | 0.00 | 79 | 1013.5 |
| 20260505040106 | 10 | 25 | 6.4 | 11.3 | 0.00 | 0.00 | 0.00 | 79 | 1013.5 |
| 20260505035107 | 10 | 43 | 3.2 | 8.0 | 0.00 | 0.00 | 0.00 | 77 | 1013.6 |
| 20260505034607 | 10 | 17 | 4.8 | 9.7 | 0.00 | 0.00 | 0.00 | 77 | 1013.5 |
| 20260505034107 | 10 | 15 | 3.2 | 4.8 | 0.00 | 0.00 | 0.00 | 77 | 1013.7 |
| 20260505033607 | 10 | 62 | 3.2 | 4.8 | 0.00 | 0.00 | 0.00 | 76 | 1013.6 |
| 20260505033106 | 10 | 232 | 3.2 | 4.8 | 0.00 | 0.00 | 0.00 | 76 | 1013.7 |
| 20260505032607 | 10 | 144 | 0.0 | 4.8 | 0.00 | 0.00 | 0.00 | 75 | 1013.6 |
| 20260505031608 | 10 | 14 | 3.2 | 4.8 | 0.00 | 0.00 | 0.00 | 76 | 1013.7 |
| 20260505031106 | 10 | 344 | 1.6 | 4.8 | 0.00 | 0.00 | 0.00 | 76 | 1013.8 |
| 20260505030606 | 10 | 279 | 1.6 | 3.2 | 0.00 | 0.00 | 0.00 | 78 | 1013.9 |
| 20260505030107 | 10 | 257 | 3.2 | 4.8 | 0.00 | 0.00 | 0.00 | 78 | 1013.9 |
| 20260505025606 | 10 | 245 | 3.2 | 4.8 | 0.00 | 0.00 | 0.00 | 78 | 1013.9 |
| 20260505025106 | 10 | 245 | 4.8 | 8.0 | 0.00 | 0.00 | 0.00 | 78 | 1013.8 |
| 20260505024106 | 10 | 257 | 1.6 | 3.2 | 0.00 | 0.00 | 0.00 | 76 | 1013.7 |
| 20260505023606 | 10 | 256 | 1.6 | 3.2 | 0.00 | 0.00 | 0.00 | 75 | 1013.7 |
| 20260505023107 | 10 | 292 | 1.6 | 4.8 | 0.00 | 0.00 | 0.00 | 75 | 1013.8 |
| 20260505022106 | 11 | 306 | 0.0 | 1.6 | 0.00 | 0.00 | 0.00 | 75 | 1013.7 |
| 20260505021606 | 11 | 82 | 0.0 | 1.6 | 0.00 | 0.00 | 0.00 | 75 | 1013.8 |
| 20260505021106 | 11 | 310 | 0.0 | 1.6 | 0.00 | 0.00 | 0.00 | 76 | 1013.8 |
| 20260505020606 | 10 | 268 | 0.0 | 1.6 | 0.00 | 0.00 | 0.00 | 76 | 1013.8 |
| 20260505020107 | 11 | 246 | 0.0 | 3.2 | 0.00 | 0.00 | 0.00 | 75 | 1014.0 |
| 20260505015606 | 11 | 65 | 3.2 | 4.8 | 0.00 | 0.00 | 0.00 | 76 | 1013.9 |
| 20260505015106 | 10 | 65 | 3.2 | 4.8 | 0.00 | 0.00 | 0.00 | 77 | 1013.9 |
| 20260505014606 | 10 | 22 | 0.0 | 1.6 | 0.00 | 0.00 | 0.00 | 77 | 1013.8 |
| 20260505014108 | 10 | 1 | 0.0 | 1.6 | 0.00 | 0.00 | 0.00 | 77 | 1014.0 |
| 20260505013607 | 11 | 138 | 1.6 | 3.2 | 0.00 | 0.00 | 0.00 | 77 | 1014.0 |
| 20260505013106 | 10 | 211 | 0.0 | 1.6 | 0.00 | 0.00 | 0.00 | 77 | 1014.0 |
| 20260505012606 | 11 | 253 | 0.0 | 1.6 | 0.00 | 0.00 | 0.00 | 77 | 1013.9 |
| 20260505011608 | 11 | 40 | 0.0 | 3.2 | 0.00 | 0.00 | 0.00 | 78 | 1014.0 |
| 20260505010606 | 10 | 163 | 1.6 | 3.2 | 0.00 | 0.00 | 0.00 | 79 | 1014.2 |
| 20260505010106 | 10 | 240 | 0.0 | 1.6 | 0.00 | 0.00 | 0.00 | 80 | 1014.2 |
| 20260505005607 | 10 | 218 | 1.6 | 3.2 | 0.00 | 0.00 | 0.00 | 80 | 1014.2 |
| 20260505005107 | 10 | 138 | 0.0 | 3.2 | 0.00 | 0.00 | 0.00 | 81 | 1014.5 |
| 20260505004606 | 10 | 178 | 0.0 | 3.2 | 0.00 | 0.00 | 0.00 | 81 | 1014.5 |
| 20260505003605 | 10 | 42 | 0.0 | 1.6 | 0.00 | 0.00 | 0.00 | 80 | 1014.4 |
| 20260505003106 | 10 | 105 | 0.0 | 1.6 | 0.00 | 0.00 | 0.00 | 80 | 1014.6 |
| 20260505002605 | 10 | 89 | 0.0 | 3.2 | 0.00 | 0.00 | 0.00 | 80 | 1014.6 |
| 20260505002106 | 10 | 94 | 1.6 | 3.2 | 0.00 | 0.00 | 0.00 | 79 | 1014.5 |
| 20260505001606 | 11 | 115 | 3.2 | 4.8 | 0.00 | 0.00 | 0.00 | 79 | 1014.7 |
| 20260505001106 | 11 | 134 | 3.2 | 8.0 | 0.00 | 0.00 | 0.00 | 78 | 1014.7 |
| 20260505000606 | 11 | 133 | 3.2 | 4.8 | 0.00 | 0.00 | 0.00 | 78 | 1014.7 |
| 20260504235606 | 11 | 131 | 3.2 | 4.8 | 0.00 | 0.00 | 0.00 | 77 | 1014.6 |
| 20260504235106 | 11 | 354 | 1.6 | 3.2 | 0.00 | 0.00 | 0.00 | 76 | 1014.7 |
| 20260504234606 | 11 | 273 | 1.6 | 3.2 | 0.00 | 0.00 | 0.00 | 75 | 1014.6 |
| 20260504234106 | 11 | 264 | 1.6 | 3.2 | 0.00 | 0.00 | 0.00 | 75 | 1014.6 |
| 20260504233605 | 11 | 267 | 1.6 | 3.2 | 0.00 | 0.00 | 0.00 | 74 | 1014.6 |
| 20260504232605 | 11 | 187 | 1.6 | 3.2 | 0.00 | 0.00 | 0.00 | 74 | 1014.7 |
| 20260504232106 | 11 | 149 | 0.0 | 1.6 | 0.00 | 0.00 | 0.00 | 74 | 1014.8 |
| 20260504231606 | 11 | 316 | 1.6 | 3.2 | 0.00 | 0.00 | 0.00 | 73 | 1014.7 |
| 20260504231106 | 11 | 279 | 1.6 | 4.8 | 0.00 | 0.00 | 0.00 | 75 | 1014.9 |
| 20260504230606 | 11 | 69 | 3.2 | 8.0 | 0.00 | 0.00 | 0.00 | 75 | 1014.6 |
| 20260504230106 | 11 | 31 | 3.2 | 8.0 | 0.00 | 0.00 | 0.00 | 74 | 1014.5 |
| 20260504225605 | 11 | 27 | 3.2 | 8.0 | 0.00 | 0.00 | 0.00 | 74 | 1014.7 |
| 20260504225105 | 11 | 283 | 3.2 | 8.0 | 0.00 | 0.00 | 0.00 | 73 | 1014.3 |
| 20260504224605 | 12 | 293 | 4.8 | 9.7 | 0.00 | 0.00 | 0.00 | 73 | 1014.3 |
| 20260504224106 | 12 | 296 | 4.8 | 8.0 | 0.00 | 0.00 | 0.00 | 72 | 1014.4 |
| 20260504223106 | 12 | 274 | 3.2 | 8.0 | 0.00 | 0.00 | 0.00 | 72 | 1014.5 |
| 20260504222606 | 12 | 315 | 4.8 | 8.0 | 0.00 | 0.00 | 0.00 | 71 | 1014.4 |
| 20260504222106 | 12 | 312 | 4.8 | 9.7 | 0.00 | 0.00 | 0.00 | 71 | 1014.5 |
| 20260504221607 | 12 | 290 | 3.2 | 8.0 | 0.00 | 0.00 | 0.00 | 71 | 1014.4 |
| 20260504221106 | 12 | 318 | 1.6 | 4.8 | 0.00 | 0.00 | 0.00 | 71 | 1014.5 |
| 20260504220607 | 12 | 5 | 3.2 | 8.0 | 0.00 | 0.00 | 0.00 | 70 | 1014.4 |
| 20260504215106 | 12 | 13 | 1.6 | 8.0 | 0.00 | 0.00 | 0.00 | 68 | 1014.5 |
| 20260504214106 | 12 | 36 | 0.0 | 8.0 | 0.00 | 0.00 | 0.00 | 67 | 1014.4 |
| 20260504213606 | 12 | 0 | 8.0 | 14.5 | 0.00 | 0.00 | 0.00 | 67 | 1014.5 |
| 20260504213105 | 12 | 40 | 4.8 | 14.5 | 0.00 | 0.00 | 0.00 | 66 | 1014.2 |
| 20260504211606 | 13 | 26 | 4.8 | 8.0 | 0.00 | 0.00 | 0.00 | 63 | 1014.0 |
| 20260504211106 | 13 | 37 | 4.8 | 8.0 | 0.00 | 0.00 | 0.00 | 62 | 1014.0 |
| 20260504210607 | 13 | 55 | 4.8 | 9.7 | 0.00 | 0.00 | 0.00 | 60 | 1013.7 |
| 20260504210106 | 13 | 37 | 6.4 | 9.7 | 0.00 | 0.00 | 0.00 | 61 | 1014.0 |
| 20260504205606 | 13 | 37 | 1.6 | 8.0 | 0.00 | 0.00 | 0.00 | 60 | 1013.8 |
| 20260504205107 | 13 | 7 | 3.2 | 8.0 | 0.00 | 0.00 | 0.00 | 59 | 1013.7 |
| 20260504204606 | 13 | 34 | 4.8 | 8.0 | 0.00 | 0.00 | 0.00 | 59 | 1013.5 |
| 20260504204105 | 13 | 337 | 3.2 | 8.0 | 0.00 | 0.00 | 0.00 | 59 | 1013.6 |
| 20260504203606 | 13 | 26 | 4.8 | 8.0 | 0.00 | 0.00 | 0.00 | 58 | 1013.5 |
| 20260504203106 | 13 | 19 | 3.2 | 4.8 | 0.00 | 0.00 | 0.00 | 58 | 1013.5 |
| 20260504201608 | 14 | 319 | 4.8 | 9.7 | 0.00 | 0.00 | 0.00 | 57 | 1013.2 |
| 20260504201106 | 14 | 28 | 3.2 | 8.0 | 0.00 | 0.00 | 0.00 | 57 | 1013.2 |
| 20260504200106 | 14 | 10 | 3.2 | 12.9 | 0.00 | 0.00 | 0.00 | 56 | 1013.0 |
| 20260504195606 | 14 | 353 | 4.8 | 9.7 | 0.00 | 0.00 | 0.00 | 55 | 1012.9 |
| 20260504195105 | 14 | 349 | 4.8 | 9.7 | 0.00 | 0.00 | 0.00 | 55 | 1012.8 |
| 20260504194606 | 15 | 326 | 6.4 | 12.9 | 0.00 | 0.00 | 0.00 | 55 | 1012.9 |
| 20260504194106 | 15 | 340 | 4.8 | 9.7 | 0.00 | 0.00 | 0.00 | 53 | 1012.7 |
| 20260504193606 | 15 | 339 | 3.2 | 8.0 | 0.00 | 0.00 | 0.00 | 54 | 1012.5 |
| 20260504193105 | 15 | 26 | 3.2 | 9.7 | 0.00 | 0.00 | 0.00 | 53 | 1012.6 |
| 20260504192606 | 15 | 4 | 6.4 | 9.7 | 0.00 | 0.00 | 0.00 | 53 | 1012.5 |
| 20260504191106 | 15 | 347 | 4.8 | 9.7 | 0.00 | 0.00 | 0.00 | 51 | 1012.1 |
| 20260504190607 | 15 | 310 | 4.8 | 11.3 | 0.00 | 0.00 | 0.00 | 50 | 1012.0 |
| 20260504190106 | 16 | 307 | 8.0 | 14.5 | 0.00 | 0.00 | 0.00 | 48 | 1012.0 |
| 20260504185605 | 16 | 318 | 4.8 | 14.5 | 0.00 | 0.00 | 0.00 | 48 | 1011.7 |
| 20260504185105 | 16 | 311 | 8.0 | 19.3 | 0.00 | 0.00 | 0.00 | 47 | 1011.9 |
| 20260504184605 | 16 | 307 | 9.7 | 16.1 | 0.00 | 0.00 | 0.00 | 46 | 1011.6 |
| 20260504184105 | 16 | 305 | 11.3 | 20.9 | 0.00 | 0.00 | 0.00 | 44 | 1011.5 |
| 20260504183106 | 17 | 300 | 9.7 | 20.9 | 0.00 | 0.00 | 0.00 | 45 | 1011.4 |
| 20260504182606 | 17 | 321 | 11.3 | 20.9 | 0.00 | 0.00 | 0.00 | 44 | 1011.3 |
| 20260504182106 | 17 | 347 | 11.3 | 20.9 | 0.00 | 0.00 | 0.00 | 44 | 1011.2 |
| 20260504181605 | 17 | 324 | 12.9 | 24.1 | 0.00 | 0.00 | 0.00 | 42 | 1011.2 |
| 20260504181106 | 18 | 351 | 8.0 | 16.1 | 0.00 | 0.00 | 0.00 | 42 | 1010.9 |
| 20260504180605 | 17 | 301 | 12.9 | 20.9 | 0.00 | 0.00 | 0.00 | 41 | 1010.9 |
| 20260504180106 | 17 | 341 | 9.7 | 20.9 | 0.00 | 0.00 | 0.00 | 42 | 1010.9 |
| 20260504175606 | 17 | 294 | 11.3 | 19.3 | 0.00 | 0.00 | 0.00 | 41 | 1010.9 |
| 20260504175105 | 18 | 301 | 9.7 | 25.7 | 0.00 | 0.00 | 0.00 | 41 | 1011.0 |
| 20260504174605 | 17 | 302 | 14.5 | 22.5 | 0.00 | 0.00 | 0.00 | 42 | 1011.2 |
| 20260504174105 | 17 | 334 | 14.5 | 29.0 | 0.00 | 0.00 | 0.00 | 42 | 1011.1 |
| 20260504173605 | 18 | 344 | 11.3 | 24.1 | 0.00 | 0.00 | 0.00 | 43 | 1010.7 |
| 20260504172606 | 18 | 346 | 14.5 | 29.0 | 0.00 | 0.00 | 0.00 | 43 | 1010.9 |
| 20260504172105 | 18 | 307 | 14.5 | 22.5 | 0.00 | 0.00 | 0.00 | 43 | 1010.8 |
| 20260504171605 | 19 | 310 | 9.7 | 16.1 | 0.00 | 0.00 | 0.00 | 42 | 1010.6 |
| 20260504171107 | 18 | 32 | 14.5 | 27.4 | 0.00 | 0.00 | 0.00 | 43 | 1010.8 |
| 20260504170606 | 18 | 290 | 9.7 | 24.1 | 0.00 | 0.00 | 0.00 | 43 | 1010.7 |
| 20260504170107 | 18 | 296 | 9.7 | 22.5 | 0.00 | 0.00 | 0.00 | 43 | 1011.0 |
| 20260504160105 | 17 | 319 | 11.3 | 27.4 | 0.00 | 0.00 | 0.00 | 48 | 1010.9 |
| 20260504151105 | 18 | 284 | 12.9 | 24.1 | 0.00 | 0.00 | 0.00 | 42 | 1010.6 |
| 20260504150604 | 18 | 242 | 12.9 | 29.0 | 0.00 | 0.00 | 0.00 | 40 | 1010.8 |
| 20260504150105 | 18 | 244 | 19.3 | 29.0 | 0.00 | 0.00 | 0.00 | 40 | 1011.0 |
| 20260504141105 | 18 | 289 | 11.3 | 24.1 | 0.00 | 0.00 | 0.00 | 47 | 1011.4 |
| 20260504140605 | 18 | 258 | 9.7 | 25.7 | 0.00 | 0.00 | 0.00 | 48 | 1011.2 |
| 20260504140106 | 18 | 283 | 9.7 | 22.5 | 0.00 | 0.00 | 0.00 | 47 | 1011.5 |
| 20260504130604 | 17 | 318 | 11.3 | 22.5 | 0.00 | 0.00 | 0.00 | 53 | 1012.0 |
| 20260504130105 | 16 | 315 | 16.1 | 22.5 | 0.00 | 0.00 | 0.00 | 55 | 1012.1 |
| 20260504120104 | 17 | 10 | 12.9 | 25.7 | 0.00 | 0.00 | 0.00 | 54 | 1012.2 |
| 20260504110605 | 16 | 230 | 6.4 | 19.3 | 0.00 | 0.00 | 0.00 | 63 | 1012.8 |
| 20260504110106 | 15 | 242 | 11.3 | 19.3 | 0.00 | 0.00 | 0.00 | 66 | 1013.0 |
| 20260504100105 | 15 | 291 | 8.0 | 16.1 | 0.00 | 0.00 | 0.00 | 66 | 1013.4 |
| 20260504081605 | 13 | 354 | 4.8 | 11.3 | 0.00 | 0.00 | 0.00 | 73 | 1013.5 |
| 20260504081104 | 13 | 344 | 8.0 | 12.9 | 0.00 | 0.00 | 0.00 | 73 | 1013.4 |
| 20260504080604 | 13 | 271 | 8.0 | 11.3 | 0.00 | 0.00 | 0.00 | 72 | 1013.4 |
| 20260504080104 | 13 | 133 | 1.6 | 8.0 | 0.00 | 0.00 | 0.00 | 71 | 1013.2 |
| 20260504070104 | 11 | 110 | 3.2 | 4.8 | 0.00 | 0.00 | 0.00 | 82 | 1013.6 |
| 20260504060106 | 11 | 78 | 3.2 | 8.0 | 0.00 | 0.00 | 0.00 | 80 | 1013.4 |
| 20260504050607 | 11 | 319 | 1.6 | 4.8 | 0.00 | 0.00 | 0.00 | 79 | 1012.9 |
| 20260504050106 | 11 | 289 | 1.6 | 3.2 | 0.00 | 0.00 | 0.00 | 80 | 1012.9 |